Storm Lake, IA

10:27 PM CDT on July 23, 2017 (GMT -0500)
Storm Lake Municipal

Weather History for KSLB - February, 2013

Change the Weather History Date:

Sunday, February 3, 2013

  Actual Average Record
Temperature  
Mean Temperature 24 °F -  
Max Temperature 37 °F 29 °F 55 °F (2005)
Min Temperature 10 °F 14 °F -9 °F (2004)
Degree Days  
Heating Degree Days 42    
Moisture  
Dew Point 19 °F    
Average Humidity 78    
Maximum Humidity 87    
Minimum Humidity 60    
Precipitation  
Precipitation 0.00 in - - ()
Sea Level Pressure  
Sea Level Pressure 29.95 in    
Wind  
Wind Speed 16 mph (WSW)    
Max Wind Speed 23 mph    
Max Gust Speed 31 mph    
Visibility 10 miles    
Events Snow    
Averages and records for this station are not official NWS values.
T = Trace of Precipitation, MM = Missing Value Source: NWS Daily Summary

Daily Weather History Graph

Daily Weather History Graph

Search for Another Location

Airport or City:

Trip Planner

Search our weather history database for the weather conditions in past years. The results will help you decide how hot, cold, wet, or windy it might be!

Date:

Astronomy

Feb. 03, 2013 Rise Set
Actual Time 7:32 AM CST 5:37 PM CST
Civil Twilight 7:02 AM CST 6:07 PM CST
Nautical Twilight 6:29 AM CST 6:40 PM CST
Astronomical Twilight 5:56 AM CST 7:13 PM CST
Moon 1:01 AM CST (2/3) 11:14 AM CST (2/3)
Length of Visible Light 11h 04m
Length of Day
10h 04m
Waning Gibbous, 48% of the Moon is Illuminated
Feb 3
Waning Gibbous
Feb 10
New
Feb 17
First Quarter
Feb 25
Full
Mar 4
Last Quarter

Hourly Weather History & Observations

Time (CST) Temp. Windchill Dew Point Humidity Pressure Visibility Wind Dir Wind Speed Gust Speed Precip Events Conditions
12:15 AM 23.0 °F 8.0 °F 19.4 °F 86% 30.03 in 10.0 mi NW 20.7 mph 29.9 mph N/A   Overcast
12:35 AM 23.0 °F 7.6 °F 17.6 °F 80% 30.03 in 10.0 mi NW 21.9 mph 28.8 mph N/A   Overcast
12:55 AM 23.0 °F 7.2 °F 17.6 °F 80% 30.04 in 10.0 mi NW 23.0 mph 28.8 mph N/A   Overcast
1:15 AM 21.2 °F 5.6 °F 15.8 °F 80% 30.04 in 10.0 mi NW 20.7 mph 31.1 mph N/A   Overcast
1:35 AM 21.2 °F 4.9 °F 15.8 °F 80% 30.05 in 10.0 mi NW 23.0 mph 29.9 mph N/A   Overcast
1:55 AM 21.2 °F 6.8 °F 15.8 °F 80% 30.07 in 10.0 mi NW 17.3 mph 25.3 mph N/A   Overcast
2:15 AM 21.2 °F 6.0 °F 15.8 °F 80% 30.08 in 6.0 mi NW 19.6 mph 27.6 mph N/A Snow Light Snow
2:35 AM 19.4 °F 3.2 °F 15.8 °F 86% 30.09 in 7.0 mi NW 20.7 mph - N/A Snow Light Snow
2:55 AM 19.4 °F 3.6 °F 15.8 °F 86% 30.09 in 10.0 mi NW 19.6 mph 27.6 mph N/A Snow Light Snow
3:15 AM 19.4 °F 4.5 °F 14.0 °F 80% 30.09 in 10.0 mi NW 17.3 mph 25.3 mph N/A   Overcast
3:55 AM 15.8 °F -0.2 °F 12.2 °F 86% 30.08 in 10.0 mi WNW 17.3 mph - N/A   Clear
4:15 AM 15.8 °F -0.6 °F 12.2 °F 86% 30.08 in 10.0 mi NW 18.4 mph 26.5 mph N/A   Clear
4:35 AM 14.0 °F -1.4 °F 10.4 °F 86% 30.09 in 10.0 mi WNW 15.0 mph 20.7 mph N/A   Clear
4:55 AM 14.0 °F -1.4 °F 10.4 °F 86% 30.09 in 10.0 mi NW 15.0 mph - N/A   Clear
5:15 AM 14.0 °F -1.4 °F 8.6 °F 79% 30.10 in 10.0 mi WNW 15.0 mph - N/A   Clear
5:35 AM 12.2 °F -2.5 °F 8.6 °F 85% 30.12 in 10.0 mi West 12.7 mph - N/A   Clear
5:55 AM 12.2 °F -3.1 °F 8.6 °F 85% 30.12 in 10.0 mi West 13.8 mph - N/A   Clear
6:15 AM 12.2 °F -3.1 °F 8.6 °F 85% 30.11 in 10.0 mi WNW 13.8 mph - N/A   Clear
6:35 AM 12.2 °F -2.5 °F 6.8 °F 79% 30.10 in 10.0 mi WNW 12.7 mph - N/A   Clear
6:55 AM 10.4 °F -4.8 °F 6.8 °F 85% 30.09 in 10.0 mi West 12.7 mph - N/A   Clear
7:15 AM 10.4 °F -5.4 °F 6.8 °F 85% 30.09 in 10.0 mi West 13.8 mph - N/A   Clear
7:35 AM 12.2 °F -4.3 °F 6.8 °F 79% 30.09 in 10.0 mi West 16.1 mph - N/A   Clear
7:55 AM 10.4 °F -4.8 °F 6.8 °F 85% 30.08 in 10.0 mi West 12.7 mph - N/A   Clear
8:15 AM 12.2 °F -1.8 °F 8.6 °F 85% 30.09 in 10.0 mi West 11.5 mph - N/A   Mostly Cloudy
8:35 AM 14.0 °F -0.2 °F 10.4 °F 86% 30.10 in 10.0 mi West 12.7 mph - N/A   Overcast
8:55 AM 15.8 °F 2.1 °F 10.4 °F 79% 30.09 in 10.0 mi West 12.7 mph - N/A   Overcast
9:15 AM 15.8 °F 2.7 °F 10.4 °F 79% 30.08 in 10.0 mi West 11.5 mph - N/A   Overcast
9:35 AM 19.4 °F 8.6 °F 12.2 °F 74% 30.07 in 10.0 mi West 9.2 mph 16.1 mph N/A   Overcast
9:55 AM 19.4 °F 6.0 °F 12.2 °F 74% 30.08 in 10.0 mi West 13.8 mph - N/A   Overcast
10:15 AM 19.4 °F 6.0 °F 14.0 °F 80% 30.07 in 10.0 mi West 13.8 mph - N/A   Overcast
10:35 AM 21.2 °F 9.5 °F 14.0 °F 74% 30.08 in 10.0 mi West 11.5 mph 17.3 mph N/A   Overcast
10:55 AM 23.0 °F 11.7 °F 15.8 °F 74% 30.08 in 10.0 mi WSW 11.5 mph - N/A   Overcast
11:15 AM 23.0 °F 11.7 °F 17.6 °F 80% 30.07 in 10.0 mi West 11.5 mph - N/A   Overcast
11:35 AM 24.8 °F 14.6 °F 17.6 °F 74% 30.06 in 10.0 mi WSW 10.4 mph - N/A   Overcast
11:55 AM 26.6 °F 17.5 °F 17.6 °F 69% 30.04 in 10.0 mi SW 9.2 mph - N/A   Partly Cloudy
12:15 PM 26.6 °F 16.8 °F 19.4 °F 74% 30.02 in 10.0 mi SSW 10.4 mph - N/A   Clear
12:35 PM 28.4 °F 18.5 °F 19.4 °F 69% 30.00 in 10.0 mi SSW 11.5 mph - N/A   Clear
12:55 PM 30.2 °F 20.2 °F 19.4 °F 64% 29.98 in 10.0 mi SSW 12.7 mph - N/A   Clear
1:15 PM 32.0 °F 22.1 °F 21.2 °F 64% 29.96 in 10.0 mi South 13.8 mph - N/A   Clear
1:35 PM 33.8 °F 23.2 °F 21.2 °F 60% 29.94 in 10.0 mi SSW 17.3 mph - N/A   Clear
1:55 PM 33.8 °F 22.8 °F 23.0 °F 65% 29.92 in 10.0 mi South 18.4 mph - N/A   Clear
2:15 PM 33.8 °F 22.5 °F 21.2 °F 60% 29.91 in 10.0 mi SSW 19.6 mph - N/A   Clear
2:35 PM 35.6 °F 25.5 °F 23.0 °F 60% 29.91 in 10.0 mi SSW 17.3 mph 25.3 mph N/A   Clear
2:55 PM 35.6 °F 25.2 °F 23.0 °F 60% 29.90 in 10.0 mi SW 18.4 mph - N/A   Clear
3:15 PM 35.6 °F 25.5 °F 24.8 °F 65% 29.90 in 10.0 mi SSW 17.3 mph - N/A   Clear
3:35 PM 35.6 °F 25.5 °F 24.8 °F 65% 29.88 in 10.0 mi SSW 17.3 mph - N/A   Clear
3:55 PM 37.4 °F 27.2 °F 24.8 °F 60% 29.87 in 10.0 mi SSW 19.6 mph - N/A   Clear
4:15 PM 37.4 °F 27.8 °F 26.6 °F 65% 29.86 in 10.0 mi SSW 17.3 mph - N/A   Clear
4:35 PM 35.6 °F 26.6 °F 26.6 °F 70% 29.85 in 10.0 mi SSW 13.8 mph 19.6 mph N/A   Clear
4:55 PM 35.6 °F 25.9 °F 26.6 °F 70% 29.84 in 10.0 mi SSW 16.1 mph - N/A   Clear
5:15 PM 33.8 °F 24.8 °F 26.6 °F 75% 29.83 in 10.0 mi South 12.7 mph - N/A   Clear
5:35 PM 33.8 °F 24.8 °F 26.6 °F 75% 29.83 in 10.0 mi South 12.7 mph - N/A   Clear
5:55 PM 32.0 °F 22.1 °F 26.6 °F 80% 29.82 in 10.0 mi South 13.8 mph - N/A   Clear
6:15 PM 32.0 °F 22.1 °F 26.6 °F 80% 29.81 in 10.0 mi South 13.8 mph - N/A   Clear
6:35 PM 32.0 °F 21.6 °F 26.6 °F 80% 29.80 in 10.0 mi South 15.0 mph - N/A   Clear
6:55 PM 30.2 °F 20.8 °F 26.6 °F 86% 29.79 in 10.0 mi South 11.5 mph - N/A   Clear
7:15 PM 30.2 °F 19.8 °F 26.6 °F 86% 29.79 in 10.0 mi South 13.8 mph - N/A   Clear
7:35 PM 30.2 °F 20.2 °F 26.6 °F 86% 29.78 in 10.0 mi South 12.7 mph - N/A   Clear
7:55 PM 30.2 °F 20.2 °F 26.6 °F 86% 29.78 in 10.0 mi South 12.7 mph - N/A   Clear
8:15 PM 30.2 °F 20.8 °F 26.6 °F 86% 29.77 in 10.0 mi South 11.5 mph - N/A   Clear
8:35 PM 30.2 °F 20.8 °F 26.6 °F 86% 29.76 in 10.0 mi South 11.5 mph - N/A   Clear
8:55 PM 32.0 °F 23.0 °F 26.6 °F 80% 29.75 in 10.0 mi SSW 11.5 mph - N/A   Clear
9:15 PM 32.0 °F 23.6 °F 26.6 °F 80% 29.75 in 10.0 mi SSW 10.4 mph - N/A   Clear
9:35 PM 32.0 °F 24.8 °F 28.4 °F 87% 29.75 in 10.0 mi SW 8.1 mph - N/A   Clear
9:55 PM 32.0 °F 25.6 °F 28.4 °F 87% 29.75 in 10.0 mi SW 6.9 mph - N/A   Clear
10:15 PM 32.0 °F 22.5 °F 28.4 °F 87% 29.74 in 10.0 mi WSW 12.7 mph - N/A   Clear
10:35 PM 33.8 °F 24.3 °F 28.4 °F 81% 29.73 in 10.0 mi WSW 13.8 mph - N/A   Scattered Clouds
10:55 PM 33.8 °F 25.8 °F 28.4 °F 81% 29.73 in 10.0 mi WSW 10.4 mph - N/A   Mostly Cloudy
11:15 PM 33.8 °F 25.3 °F 30.2 °F 87% 29.73 in 10.0 mi WSW 11.5 mph - N/A   Overcast
11:35 PM 33.8 °F 25.8 °F 30.2 °F 87% 29.72 in 10.0 mi West 10.4 mph - N/A   Overcast
11:55 PM 33.8 °F 25.3 °F 30.2 °F 87% 29.72 in 10.0 mi West 11.5 mph - N/A   Overcast